Tracking 35237 objects as of 5-Sep-2026
HD Live streaming from Space Station
objects crossing your sky now

STARLINK-3858


STARLINK-3858 is no longer on orbit
STARLINK-3858 is classified as:


NORAD ID: 52553
Int'l Code: 2022-051W
Launch date: May 13, 2022
Source: United States (US)
Launch site: AIR FORCE WESTERN TEST RANGE (AFWTR)
Decay date: 2026-07-02
Your satellite tracking list
Your tracking list is empty




NASA's NSSDC Master Catalog

Two Line Element Set (TLE):
1 52553U 22051W   26182.91092003  .09929172  12615-4  19265-3 0  9997
2 52553  53.2054 306.7588 0007526 308.9478  51.0902 16.46764132229108
Source of the keplerian elements: AFSPC